Regional Weather Roundup
Issued by NWS

Home | Current Version | Previous Version | Graphics & Text | Print | Product List | Glossary On
Versions: 1 2 3 4 5 6 7 8 9 10 11 12 13 14 15 16 17 18 19 20 21 22 23 24 25 26 27 28 29 30 31 32 33 34 35 36 37 38 39 40 41 42 43 44 45 46 47 48 49 50
000
ASUS43 KBIS 261210
RWRND

NORTH DAKOTA REGIONAL WEATHER ROUNDUP
NATIONAL WEATHER SERVICE BISMARCK ND
700 AM CDT SUN APR 26 2015

NOTE: "FAIR" INDICATES FEW OR NO CLOUDS BELOW 12,000 FEET WITH NO
SIGNIFICANT WEATHER AND/OR OBSTRUCTIONS TO VISIBILITY.


NDZ001>003-009>011-017-261300-
NORTHWEST NORTH DAKOTA

CITY           SKY/WX    TMP DP  RH WIND       PRES   REMARKS
WILLISTON      CLOUDY    39  36  89 NW10      30.01R
6HR MIN TEMP:  36; 6HR MAX TEMP:  46;

MINOT          CLOUDY    47  44  90 S8        29.98R FOG
MINOT AFB      DRIZZLE   46  46 100 S6        29.97R FOG
$$

NDZ018>021-031>035-040>046-261300-
SOUTHWEST NORTH DAKOTA

CITY           SKY/WX    TMP DP  RH WIND       PRES   REMARKS
BISMARCK       LGT RAIN  46  46 100 E7        30.01R FOG
6HR MIN TEMP:  46; 6HR MAX TEMP:  48; 6HR PCP:  0.10;

DICKINSON      CLOUDY    42  40  92 W6        29.98R
GARRISON         N/A     46  44  93 S6        29.97R
6HR MIN TEMP:  45; 6HR MAX TEMP:  47; 6HR PCP:  0.05;

HETTINGER ARPT CLOUDY    43  40  89 N8        29.98R FOG
$$

NDZ004>008-012>016-024-026-027-054-261300-
NORTHEAST NORTH DAKOTA

CITY           SKY/WX    TMP DP  RH WIND       PRES   REMARKS
GRAND FORKS    PTCLDY    36  28  73 SE6       30.08R
GRND FRKS AFB  FAIR      33  27  78 S6        30.07R
DEVILS LAKE    CLOUDY    45  37  76 SE7       30.03R
$$

NDZ022-023-025-028>030-036>039-047>053-261300-
SOUTHEAST NORTH DAKOTA

CITY           SKY/WX    TMP DP  RH WIND       PRES   REMARKS
FARGO          CLEAR     40  21  46 SE7       30.09R
6HR MIN TEMP:  36; 6HR MAX TEMP:  47;

JAMESTOWN      CLOUDY    46  37  71 S6        30.03R
$$




USA.gov is the U.S. government's official web portal to all federal, state and local government web resources and services.